EST,Max TemperatureF,Mean TemperatureF,Min TemperatureF,Max Dew PointF,MeanDew PointF,Min DewpointF,Max Humidity, Mean Humidity, Min Humidity, Max Sea Level PressureIn, Mean Sea Level PressureIn, Min Sea Level PressureIn, Max VisibilityMiles, Mean VisibilityMiles, Min VisibilityMiles, Max Wind SpeedMPH, Mean Wind SpeedMPH, Max Gust SpeedMPH,PrecipitationIn, CloudCover, Events, WindDirDegrees
2012-11-1,53,46,38,37,31,20,100,66,31,29.91,29.88,29.85,10,9,5,15,5,21,T,6,,259
2012-11-2,56,48,40,32,27,23,60,46,32,30.06,29.95,29.84,10,10,10,12,4,17,0.00,3,,307
2012-11-3,48,41,34,39,33,27,100,77,53,30.17,30.09,30.03,10,10,7,9,1,16,0.14,5,Rain-Thunderstorm,110
2012-11-4,52,45,38,38,35,30,92,71,50,30.12,30.09,30.03,10,10,10,9,1,13,0.00,4,,180
2012-11-5,51,42,32,31,29,25,85,64,42,30.16,30.11,30.06,10,10,10,8,1,13,0.00,1,,40
2012-11-6,59,45,31,35,30,25,78,59,40,30.05,29.98,29.90,10,10,10,8,2,13,0.00,3,,57
2012-11-7,50,45,39,37,36,34,92,74,56,30.08,29.94,29.86,10,10,6,8,4,13,T,5,Rain,279
2012-11-8,53,42,31,35,29,23,89,64,38,30.25,30.18,30.08,10,9,5,8,2,12,0.00,0,,293
2012-11-9,62,48,34,34,30,26,76,53,29,30.31,30.23,30.19,10,10,10,7,1,12,0.00,0,,183
2012-11-10,73,60,46,34,32,28,53,38,22,30.31,30.25,30.20,10,10,10,9,3,14,0.00,0,,201
2012-11-11,73,63,52,43,33,29,51,36,20,30.36,30.25,30.17,10,10,10,12,4,23,0.00,0,,196
2012-11-12,65,49,33,52,44,31,93,72,51,30.43,30.22,30.05,10,7,1,16,4,30,0.44,6,Rain,265
2012-11-13,45,37,29,34,28,22,100,72,43,30.51,30.46,30.43,10,8,0,8,2,13,0.00,1,Fog,352
2012-11-14,47,38,28,28,25,21,78,62,45,30.49,30.41,30.33,10,10,10,8,3,18,0.00,0,,44
2012-11-15,53,41,29,29,27,24,78,59,39,30.35,30.31,30.28,10,10,10,6,2,12,0.00,0,,22
2012-11-16,53,43,32,30,27,26,75,55,35,30.45,30.38,30.32,10,10,10,7,3,14,0.00,0,,42
2012-11-17,59,47,34,29,26,22,70,47,24,30.51,30.45,30.41,10,10,10,7,4,14,0.00,0,,45
2012-11-18,63,51,39,31,23,17,49,33,17,30.45,30.40,30.35,10,10,10,6,3,10,0.00,0,,68
2012-11-19,61,50,39,36,33,32,79,58,36,30.35,30.28,30.19,10,10,10,6,1,10,0.00,0,,81
2012-11-20,63,52,40,35,32,27,76,52,27,30.18,30.13,30.07,10,10,10,7,1,10,T,2,,125
2012-11-21,63,53,43,40,35,30,76,54,32,30.22,30.18,30.10,10,10,10,6,1,10,0.00,0,,33
2012-11-22,67,55,42,37,34,31,70,51,32,30.24,30.18,30.09,10,9,2,8,2,13,0.00,0,,179
2012-11-23,54,45,36,46,39,24,93,71,49,30.14,30.05,30.01,10,7,1,16,7,28,0.14,5,Rain,257
2012-11-24,36,30,24,23,20,16,69,62,54,30.22,30.17,30.12,10,10,10,13,3,18,T,6,,297
2012-11-25,53,38,23,22,18,16,88,57,26,30.15,30.07,29.97,10,10,10,9,4,17,0.00,0,,209
2012-11-26,50,44,38,37,26,19,79,58,36,30.19,30.15,30.08,10,10,9,6,2,10,0.04,5,Rain,205
2012-11-27,41,37,33,40,35,29,100,91,82,30.33,30.24,30.14,10,5,2,8,2,14,0.08,8,Rain,28
2012-11-28,45,38,30,30,27,22,92,69,45,30.46,30.39,30.29,10,10,8,7,2,12,0.00,4,,266
2012-11-29,55,42,28,28,24,22,78,53,28,30.44,30.36,30.29,10,10,10,8,2,13,0.00,0,,194
2012-11-30,59,49,38,38,32,26,66,52,37,30.34,30.27,30.19,10,10,10,12,4,22,0.00,1,,208